2015-02-18 00:03:30 r, 17.29m,0000000011Hz,0000043188c,0000000.094s,-003.9C,00002195
2015-02-18 00:13:30 r, 17.29m,0000000011Hz,0000043241c,0000000.094s,-003.9C,00002195
2015-02-18 00:23:30 r, 17.29m,0000000010Hz,0000043117c,0000000.094s,-004.2C,00002195
2015-02-18 00:33:30 r, 17.29m,0000000011Hz,0000043189c,0000000.094s,-004.2C,00002195
2015-02-18 00:43:30 r, 17.28m,0000000011Hz,0000042504c,0000000.092s,-004.2C,00002195
2015-02-18 00:53:30 r, 17.31m,0000000011Hz,0000043557c,0000000.095s,-004.6C,00002195
2015-02-18 01:03:30 r, 17.27m,0000000011Hz,0000042413c,0000000.092s,-004.6C,00002195
2015-02-18 01:13:30 r, 16.92m,0000000015Hz,0000030502c,0000000.066s,-004.6C,00002195
2015-02-18 01:23:30 r, 17.22m,0000000011Hz,0000040416c,0000000.088s,-004.6C,00002195
2015-02-18 01:33:30 r, 17.34m,0000000010Hz,0000044876c,0000000.097s,-004.9C,00002195
2015-02-18 01:43:30 r, 17.33m,0000000010Hz,0000044428c,0000000.096s,-004.9C,00002195
2015-02-18 01:53:30 r, 17.34m,0000000011Hz,0000045007c,0000000.098s,-005.2C,00002195
2015-02-18 02:03:30 r, 17.11m,0000000012Hz,0000036523c,0000000.079s,-005.2C,00002195
2015-02-18 02:13:30 r, 17.34m,0000000011Hz,0000045013c,0000000.098s,-005.2C,00002195
2015-02-18 02:23:30 r, 17.36m,0000000010Hz,0000045591c,0000000.099s,-005.5C,00002195
2015-02-18 02:33:30 r, 17.35m,0000000010Hz,0000045125c,0000000.098s,-005.2C,00002195
2015-02-18 02:43:30 r, 17.35m,0000000010Hz,0000045196c,0000000.098s,-005.2C,00002195
2015-02-18 02:53:30 r, 17.35m,0000000010Hz,0000045132c,0000000.098s,-005.2C,00002195
2015-02-18 03:03:30 r, 17.35m,0000000010Hz,0000045113c,0000000.098s,-005.5C,00002195
2015-02-18 03:13:30 r, 17.35m,0000000010Hz,0000045077c,0000000.098s,-005.5C,00002195
2015-02-18 03:23:30 r, 17.34m,0000000010Hz,0000045040c,0000000.098s,-005.5C,00002195
2015-02-18 03:33:30 r, 17.33m,0000000010Hz,0000044602c,0000000.097s,-005.5C,00002195
2015-02-18 03:43:30 r, 17.34m,0000000010Hz,0000044856c,0000000.097s,-005.5C,00002195
2015-02-18 03:53:30 r, 17.34m,0000000010Hz,0000044825c,0000000.097s,-005.5C,00002195
2015-02-18 04:03:30 r, 17.33m,0000000010Hz,0000044508c,0000000.097s,-005.5C,00002195
2015-02-18 04:13:30 r, 17.33m,0000000010Hz,0000044331c,0000000.096s,-005.9C,00002195
2015-02-18 04:23:30 r, 17.32m,0000000010Hz,0000044148c,0000000.096s,-005.9C,00002195
2015-02-18 04:33:30 r, 17.33m,0000000010Hz,0000044699c,0000000.097s,-005.9C,00002195
2015-02-18 04:43:30 r, 17.32m,0000000010Hz,0000044211c,0000000.096s,-005.9C,00002195
2015-02-18 04:53:30 r, 17.30m,0000000010Hz,0000043359c,0000000.094s,-005.9C,00002195
2015-02-18 05:03:30 r, 17.34m,0000000010Hz,0000044841c,0000000.097s,-005.9C,00002195
2015-02-18 05:13:30 r, 17.34m,0000000011Hz,0000044868c,0000000.097s,-005.9C,00002195
2015-02-18 05:23:30 r, 17.32m,0000000010Hz,0000044283c,0000000.096s,-005.9C,00002195
2015-02-18 05:33:30 r, 17.32m,0000000011Hz,0000044093c,0000000.096s,-005.9C,00002195
2015-02-18 05:43:30 r, 17.32m,0000000011Hz,0000044164c,0000000.096s,-005.9C,00002195
2015-02-18 05:53:30 r, 17.32m,0000000011Hz,0000044211c,0000000.096s,-005.9C,00002195
2015-02-18 06:03:30 r, 17.32m,0000000010Hz,0000044283c,0000000.096s,-006.2C,00002195
2015-02-18 06:13:30 r, 17.32m,0000000011Hz,0000044080c,0000000.096s,-006.2C,00002195
2015-02-18 06:23:30 r, 17.24m,0000000011Hz,0000041174c,0000000.089s,-006.2C,00002195
2015-02-18 06:33:30 r, 16.96m,0000000014Hz,0000031668c,0000000.069s,-006.2C,00002195
2015-02-18 06:43:30 r, 16.18m,0000000030Hz,0000015400c,0000000.033s,-006.2C,00002195
2015-02-18 06:53:30 r, 14.61m,0000000125Hz,0000003641c,0000000.008s,-006.5C,00002195
2015-02-18 07:03:30 r, 12.53m,0000000869Hz,0000000000c,0000000.000s,-006.2C,00002195
2015-02-18 07:13:30 r, 10.45m,0000005860Hz,0000000000c,0000000.000s,-006.2C,00002195
2015-02-18 07:23:30 r, 08.75m,0000028064Hz,0000000000c,0000000.000s,-006.5C,00002195
2015-02-18 07:33:30 r, 07.54m,0000085852Hz,0000000000c,0000000.000s,-006.5C,00002195
2015-02-18 07:43:30 r, 06.70m,0000185373Hz,0000000000c,0000000.000s,-006.2C,00002195
2015-02-18 07:53:30 r, 06.14m,0000313206Hz,0000000000c,0000000.000s,-006.5C,00002195
2015-02-18 08:03:30 r, 00.00m,0000453609Hz,0000000000c,0000000.000s,-006.2C,00002195
2015-02-18 08:13:30 r, 00.00m,0000559491Hz,0000000000c,0000000.000s,-006.2C,00002195
2015-02-18 08:23:30 r, 00.00m,0000559470Hz,0000000000c,0000000.000s,-005.9C,00002195
2015-02-18 08:33:30 r, 00.00m,0000559427Hz,0000000000c,0000000.000s,-005.9C,00002195
2015-02-18 08:43:30 r, 00.00m,0000559491Hz,0000000000c,0000000.000s,-005.5C,00002195
2015-02-18 08:53:30 r, 00.00m,0000559603Hz,0000000000c,0000000.000s,-004.6C,00002195
2015-02-18 09:03:30 r, 00.00m,0000559865Hz,0000000000c,0000000.000s,-003.6C,00002195
2015-02-18 09:13:30 r, 00.00m,0000560084Hz,0000000000c,0000000.000s,-002.3C,00002195
2015-02-18 09:23:30 r, 00.00m,0000560155Hz,0000000000c,0000000.000s,-001.3C,00002195
2015-02-18 09:33:30 r, 00.00m,0000560401Hz,0000000000c,0000000.000s,-000.4C,00002195
2015-02-18 09:43:30 r, 00.00m,0000560558Hz,0000000000c,0000000.000s, 000.6C,00002195
2015-02-18 09:53:30 r, 00.00m,0000560610Hz,0000000000c,0000000.000s, 001.2C,00002195
2015-02-18 10:03:30 r, 00.00m,0000560773Hz,0000000000c,0000000.000s, 002.2C,00002195
2015-02-18 10:13:30 r, 00.00m,0000560900Hz,0000000000c,0000000.000s, 002.9C,00002195
2015-02-18 10:23:30 r, 00.00m,0000560928Hz,0000000000c,0000000.000s, 003.2C,00002195
2015-02-18 10:33:30 r, 00.00m,0000561107Hz,0000000000c,0000000.000s, 003.8C,00002195
2015-02-18 10:43:30 r, 00.00m,0000561219Hz,0000000000c,0000000.000s, 004.5C,00002195
2015-02-18 10:53:30 r, 00.00m,0000561316Hz,0000000000c,0000000.000s, 004.8C,00002195
2015-02-18 11:03:30 r, 00.00m,0000561460Hz,0000000000c,0000000.000s, 005.4C,00002195
2015-02-18 11:13:30 r, 00.00m,0000561468Hz,0000000000c,0000000.000s, 006.1C,00002195
2015-02-18 11:23:30 r, 00.00m,0000561523Hz,0000000000c,0000000.000s, 006.1C,00002195
2015-02-18 11:33:30 r, 00.00m,0000561591Hz,0000000000c,0000000.000s, 006.4C,00002195
2015-02-18 11:43:30 r, 00.00m,0000561601Hz,0000000000c,0000000.000s, 006.4C,00002195
2015-02-18 11:53:30 r, 00.00m,0000561564Hz,0000000000c,0000000.000s, 006.4C,00002195
2015-02-18 12:03:30 r, 00.00m,0000561582Hz,0000000000c,0000000.000s, 006.4C,00002195
2015-02-18 12:13:30 r, 00.00m,0000561673Hz,0000000000c,0000000.000s, 006.7C,00002195
2015-02-18 12:23:30 r, 00.00m,0000561697Hz,0000000000c,0000000.000s, 006.7C,00002195
2015-02-18 12:33:30 r, 00.00m,0000561788Hz,0000000000c,0000000.000s, 007.0C,00002195
2015-02-18 12:43:30 r, 00.00m,0000561702Hz,0000000000c,0000000.000s, 007.0C,00002195
2015-02-18 12:53:30 r, 00.00m,0000561705Hz,0000000000c,0000000.000s, 007.0C,00002195
2015-02-18 13:03:30 r, 00.00m,0000561705Hz,0000000000c,0000000.000s, 007.0C,00002195
2015-02-18 13:13:30 r, 00.00m,0000561804Hz,0000000000c,0000000.000s, 007.4C,00002195
2015-02-18 13:23:30 r, 00.00m,0000561869Hz,0000000000c,0000000.000s, 007.7C,00002195
2015-02-18 13:33:30 r, 00.00m,0000561856Hz,0000000000c,0000000.000s, 008.0C,00002195
2015-02-18 13:43:30 r, 00.00m,0000561825Hz,0000000000c,0000000.000s, 008.0C,00002195
2015-02-18 13:53:30 r, 00.00m,0000561863Hz,0000000000c,0000000.000s, 008.0C,00002195
2015-02-18 14:03:30 r, 00.00m,0000561664Hz,0000000000c,0000000.000s, 008.0C,00002195
2015-02-18 14:13:30 r, 00.00m,0000561776Hz,0000000000c,0000000.000s, 008.0C,00002195
2015-02-18 14:23:30 r, 00.00m,0000561723Hz,0000000000c,0000000.000s, 007.7C,00002195
2015-02-18 14:33:30 r, 00.00m,0000561733Hz,0000000000c,0000000.000s, 007.7C,00002195
2015-02-18 14:43:30 r, 00.00m,0000561666Hz,0000000000c,0000000.000s, 007.4C,00002195
2015-02-18 14:53:30 r, 00.00m,0000561555Hz,0000000000c,0000000.000s, 007.0C,00002195
2015-02-18 15:03:30 r, 00.00m,0000561504Hz,0000000000c,0000000.000s, 007.0C,00002195
2015-02-18 15:13:30 r, 00.00m,0000561401Hz,0000000000c,0000000.000s, 006.7C,00002195
2015-02-18 15:23:30 r, 00.00m,0000561325Hz,0000000000c,0000000.000s, 006.1C,00002195
2015-02-18 15:33:30 r, 00.00m,0000561099Hz,0000000000c,0000000.000s, 004.8C,00002195
2015-02-18 15:43:30 r, 00.00m,0000560823Hz,0000000000c,0000000.000s, 003.5C,00002195
2015-02-18 15:53:30 r, 00.00m,0000560598Hz,0000000000c,0000000.000s, 002.2C,00002195
2015-02-18 16:03:30 r, 00.00m,0000560573Hz,0000000000c,0000000.000s, 001.2C,00002195
2015-02-18 16:13:30 r, 00.00m,0000560374Hz,0000000000c,0000000.000s, 000.6C,00002195
2015-02-18 16:23:30 r, 00.00m,0000560432Hz,0000000000c,0000000.000s, 000.1C,00002195
2015-02-18 16:33:30 r, 00.00m,0000560273Hz,0000000000c,0000000.000s,-000.4C,00002195
2015-02-18 16:43:30 r, 00.00m,0000560305Hz,0000000000c,0000000.000s,-000.7C,00002195
2015-02-18 16:53:30 r, 00.00m,0000560221Hz,0000000000c,0000000.000s,-001.0C,00002195
2015-02-18 17:03:30 r, 00.00m,0000560098Hz,0000000000c,0000000.000s,-001.0C,00002195
2015-02-18 17:13:30 r, 00.00m,0000560324Hz,0000000000c,0000000.000s,-001.3C,00002195
2015-02-18 17:23:30 r, 00.00m,0000427639Hz,0000000000c,0000000.000s,-001.3C,00002195
2015-02-18 17:33:30 r, 06.22m,0000290382Hz,0000000000c,0000000.000s,-001.0C,00002195
2015-02-18 17:43:30 r, 06.81m,0000168894Hz,0000000000c,0000000.000s,-001.3C,00002195
2015-02-18 17:53:30 r, 07.67m,0000075802Hz,0000000000c,0000000.000s,-001.7C,00002195
2015-02-18 18:03:30 r, 08.95m,0000023379Hz,0000000000c,0000000.000s,-002.0C,00002195
2015-02-18 18:13:30 r, 10.78m,0000004324Hz,0000000000c,0000000.000s,-002.3C,00002195
2015-02-18 18:23:30 r, 12.91m,0000000610Hz,0000000000c,0000000.000s,-002.6C,00002195
2015-02-18 18:33:30 r, 14.92m,0000000096Hz,0000004833c,0000000.010s,-002.6C,00002195
2015-02-18 18:43:30 r, 16.24m,0000000028Hz,0000016271c,0000000.035s,-002.6C,00002195
2015-02-18 18:53:30 r, 17.04m,0000000013Hz,0000034271c,0000000.074s,-002.6C,00002195
2015-02-18 19:03:30 r, 17.27m,0000000011Hz,0000042195c,0000000.092s,-002.6C,00002195
2015-02-18 19:13:30 r, 17.34m,0000000010Hz,0000044918c,0000000.097s,-002.6C,00002195
2015-02-18 19:23:30 r, 17.36m,0000000011Hz,0000045893c,0000000.100s,-002.6C,00002195
2015-02-18 19:33:30 r, 17.36m,0000000010Hz,0000046075c,0000000.100s,-002.6C,00002195
2015-02-18 19:43:30 r, 17.38m,0000000010Hz,0000046546c,0000000.101s,-003.0C,00002195
2015-02-18 19:53:30 r, 17.38m,0000000010Hz,0000046349c,0000000.101s,-003.0C,00002195
2015-02-18 20:03:30 r, 17.39m,0000000009Hz,0000046868c,0000000.102s,-003.0C,00002195
2015-02-18 20:13:30 r, 17.39m,0000000009Hz,0000046980c,0000000.102s,-003.0C,00002195
2015-02-18 20:23:30 r, 17.39m,0000000010Hz,0000046959c,0000000.102s,-003.0C,00002195
2015-02-18 20:33:30 r, 17.39m,0000000010Hz,0000046967c,0000000.102s,-003.0C,00002195
2015-02-18 20:43:30 r, 17.39m,0000000010Hz,0000046954c,0000000.102s,-003.3C,00002195
2015-02-18 20:53:30 r, 17.39m,0000000010Hz,0000047049c,0000000.102s,-003.3C,00002195
2015-02-18 21:03:30 r, 17.41m,0000000009Hz,0000047937c,0000000.104s,-003.3C,00002195
2015-02-18 21:13:30 r, 17.42m,0000000009Hz,0000048393c,0000000.105s,-003.6C,00002195
2015-02-18 21:23:30 r, 17.41m,0000000010Hz,0000047906c,0000000.104s,-003.3C,00002195
2015-02-18 21:33:30 r, 17.42m,0000000010Hz,0000048315c,0000000.105s,-003.6C,00002195
2015-02-18 21:43:30 r, 17.42m,0000000009Hz,0000048610c,0000000.105s,-003.6C,00002195
2015-02-18 21:53:30 r, 17.42m,0000000009Hz,0000048178c,0000000.105s,-003.6C,00002195
2015-02-18 22:03:30 r, 17.43m,0000000009Hz,0000048878c,0000000.106s,-003.6C,00002195
2015-02-18 22:13:30 r, 17.42m,0000000010Hz,0000048328c,0000000.105s,-003.6C,00002195
2015-02-18 22:23:30 r, 17.44m,0000000009Hz,0000048990c,0000000.106s,-003.6C,00002195
2015-02-18 22:33:30 r, 17.45m,0000000010Hz,0000049766c,0000000.108s,-003.6C,00002195
2015-02-18 22:43:30 r, 17.45m,0000000009Hz,0000049794c,0000000.108s,-003.6C,00002195
2015-02-18 22:53:30 r, 17.45m,0000000010Hz,0000049766c,0000000.108s,-003.9C,00002195
2015-02-18 23:03:30 r, 17.46m,0000000009Hz,0000049928c,0000000.108s,-003.9C,00002195
2015-02-18 23:13:30 r, 17.46m,0000000010Hz,0000050112c,0000000.109s,-004.2C,00002195
2015-02-18 23:23:30 r, 17.46m,0000000009Hz,0000049972c,0000000.108s,-004.2C,00002195
2015-02-18 23:33:30 r, 17.46m,0000000009Hz,0000050031c,0000000.109s,-004.2C,00002195
2015-02-18 23:43:30 r, 17.47m,0000000009Hz,0000050918c,0000000.110s,-004.2C,00002195
2015-02-18 23:53:30 r, 17.49m,0000000009Hz,0000051676c,0000000.112s,-004.2C,00002195
